Current Version              Previous Version:    01  02  03  04  05  06  07  08  09  10  11  12  13  14  15  16  17  18  19  20  21  22  23  24  25  26  27  28  29  30  
   31  32  33  34  35  36  37  38  39  40  41  42  43  44  45  46  47  48  49  50  51  52  53  54  55  56  57  58  59  60  

[Printable]
707
ASUS44 KFWD 252102
RWRTX
NORTH TEXAS HOURLY WEATHER ROUNDUP
NATIONAL WEATHER SERVICE FORT WORTH TX
ISSUED BY NWS SHREVEPORT LA
300 PM CST TUE NOV 25 2014

NOTE: "FAIR" INDICATES FEW OR NO CLOUDS BELOW 12,000 FEET WITH NO
SIGNIFICANT WEATHER AND/OR OBSTRUCTIONS TO VISIBILITY.

TXZ118-119-252200-
DALLAS/FORT WORTH METROPLEX

CITY           SKY/WX    TMP DP  RH WIND       PRES   REMARKS
DFW AIRPORT    MOSUNNY   60  26  27 W10       30.17F
DALLAS LOVE    MOSUNNY   63  26  24 W10       30.17F
FTW MEACHAM    SUNNY     62  30  29 SW9       30.17F
DAL-EXECUTIVE  SUNNY     64  27  24 W8        30.16F
FTW-ALLIANCE   MOSUNNY   60  26  27 W5        30.17F
FTW-NAS-JRB    SUNNY     65  28  24 SW8G16    30.22F
FTW-SPINKS     MOSUNNY   63  27  25 W9        30.20F
ARLINGTON      SUNNY     64  25  22 W10G16    30.18F
GRAND PRAIRIE  SUNNY     63  30  29 W14       30.19F
ADDISON        MOSUNNY   61  25  25 W12       30.17F
$$

TXZ091>094-102>105-117-120-121-131>134-252200-
NORTH CENTRAL TEXAS

CITY           SKY/WX    TMP DP  RH WIND       PRES   REMARKS
SHRMAN/DENISON SUNNY     60  30  31 W10       30.17F
DENTON         SUNNY     60  27  28 W9        30.17F HAZE
MCKINNEY       SUNNY     61  29  29 W9        30.17F
TERRELL        SUNNY     66  29  24 W17       30.17F
$$

TXZ083>090-098>101-113>116-127>130-139>142-154-155-252200-
WESTERN NORTH TEXAS

CITY           SKY/WX    TMP DP  RH WIND       PRES   REMARKS
WICHITA FALLS  SUNNY     55  28  35 S7        30.17F
ABILENE        SUNNY     58  26  29 S7        30.21F
ABILENE-DYESS  SUNNY     59  24  26 W15       30.19F
MINERAL WELLS    N/A    N/A N/A N/A MISG      30.18F
STEPHENVILLE   SUNNY     61  24  24 W8        30.22F
$$

TXZ143>147-156>162-174-175-252200-
CENTRAL TEXAS

CITY           SKY/WX    TMP DP  RH WIND       PRES   REMARKS
WACO           SUNNY     65  25  22 W13       30.20F
WACO-MCGREGOR  SUNNY     64  30  27 W14G20    30.22F
CORSICANA      SUNNY     66  25  21 W15       30.20F HAZE
TEMPLE         SUNNY     64  25  22 W10G20    30.21F
KILLEEN-GRAY   SUNNY     63  25  23 W15G21    30.21F
KILLEEN-SKYLRK SUNNY     64  27  24 W9G16     30.20F
$$

TXZ095>097-106>112-122>126-135>138-148>153-164>167-252200-
EAST TEXAS

CITY           SKY/WX    TMP DP  RH WIND       PRES   REMARKS
PARIS          SUNNY     61  27  27 W5        30.17F
TYLER          SUNNY     64  24  21 W10G20    30.17F
LONGVIEW       SUNNY     62  25  24 W6        30.17F
JACKSONVILLE   SUNNY     63  24  23 W7G16     30.20F
NACOGDOCHES    SUNNY     61  28  29 NW8       30.21F
LUFKIN         SUNNY     65  28  24 SW8       30.21F
$$

SUPPLEMENTAL OBSERVATIONS (CENTRAL)

CITY           SKY/WX    TMP DP  RH WIND       PRES   REMARKS
$$

SUPPLEMENTAL OBSERVATIONS (WEST)

CITY           SKY/WX    TMP DP  RH WIND       PRES   REMARKS
$$

SUPPLEMENTAL OBSERVATIONS (EAST)

CITY           SKY/WX    TMP DP  RH WIND       PRES   REMARKS
$$

SUPPLEMENTAL OBSERVATIONS ARE A COLLECTION OF AUTOMATED INSTRUMENTS
THAT ARE MAINTAINED BY A VARIETY OF FEDERAL AND STATE AGENCIES.
CERTAIN ELEMENTS...SUCH AS HUMIDITY VALUES AND SUSTAINED WIND
SPEEDS...MAY BE ESTIMATED.